OPS 4682 DEB, 38436

Orbit data source: Space-Track

OPS 4682 DEB, 38436 is space debris in LEO originally from a launch on Sat, 03 Apr 1965 UTC launched from the Air Force Western Test Range (AFWTR). Debris objects in space refer to the collection of defunct objects orbiting the Earth. Examples of debris include non-operational satellites, rocket bodies, and fragments generated from explosions, collisions, or faulty payload assembly.

Loading next visibility...
Identifier
38436, 1965-027ER
Orbit
LEO
Country
Flag of USUS
Related business
Manufacturer
Unknown
Mission
Spacecraft
Bus & Motor
Unknown
Mass
Unknown
Launch date (UTC)
1965-04-03 (61 years ago)
Launch vehicle
Unknown
Launch site
Air Force Western Test Range (AFWTR)
Object type
Payload
Rocket body
Debris
Shape & HBR
Unknown shape, 0.1 m
Radar Cross Section
Small (<0.1 m²)

Expand to show TLE details & history
Last TLE update: 19 hours ago

TLE from 19 hours ago
0 OPS 4682 DEB
1 38436U 65027ER  26104.13681579 -.00000050  00000-0 -19217-3 0  9997
2 38436  90.2457   1.4529 0026704 102.8528 257.5580 12.99917233607101
Epoch: 2026-04-14T03:17Z
TLE epoch observation values (Epoch: 2026-04-14T03:17:00.884Z)
Latitude
0.00001°
Longitude
109.88183°
Altitude
1,269.743 km
Speed
7.219 km/s
True Right ascension
00h 05m 48s
True Declination
0° 00' 00"
Sunlit
Object was in daylight at epoch
Visualization orbit readout
Latitude
Unknown
Longitude
Unknown
Altitude
Unknown
Speed
Unknown
Apparent Right ascension
Unknown
Apparent Declination
Unknown
Sunlit
N/A
Visualization observer readout
Local Sidereal Time
04:21:00
Azimuth
Unknown
Elevation
Unknown
Doppler factor
Unknown
Orbital elements
Apogee altitude
1,279.934 km
Perigee altitude
1,239.142 km
Semi-major axis
7,637.675 km
Eccentricity
0.00267
Inclination
90.2457°
RAAN
1.4529°
Arg. of periapsis
102.8528°
True anomaly
257.2594°
Mean anomaly
257.558°
Eccentric anomaly
257.40868°
Mean motion
3.25163 °/min
Orbital period
110.71 mins
BSTAR
-0.00019217
Loading maneuver chart data...
Computing Atmospheric mass density...
Loading historical data...
Loading historical data...
Loading historical data...
Loading historical data...
Loading historical data...
Loading historical data...
Loading historical data...

Documentation

Showing up to 5 results
|